Weather History for KILN - September, 2013

Change the Weather History Date:

Friday, September 27, 2013

  Actual Average (KDAY) Record (KDAY)
Temperature  
Mean Temperature 64 °F 61 °F  
Max Temperature 81 °F 71 °F 91 °F (1998)
Min Temperature 48 °F 50 °F 33 °F (1899)
Degree Days  
Heating Degree Days 0 6  
Month to date heating degree days 69  
Since 1 July heating degree days 71  
Cooling Degree Days 0 2  
Month to date cooling degree days 96  
Year to date cooling degree days 878  
Growing Degree Days 14 (Base 50)    
Moisture  
Dew Point 46 °F    
Average Humidity 60    
Maximum Humidity 90    
Minimum Humidity 25    
Precipitation  
Precipitation 0.04 in 0.11 in 3.73 in (2002)
Month to date precipitation 2.99  
Year to date precipitation 31.30  
Snow  
Snow 0.00 in 0.00 in - ()
Month to date snowfall 0.0  
Since 1 July snowfall 0.0  
Since 1 September snowfall 0.0  
Snow Depth -    
Sea Level Pressure  
Sea Level Pressure 30.14 in    
Wind  
Wind Speed 4 mph (ENE)    
Max Wind Speed 7 mph    
Max Gust Speed -    
Visibility 10 miles    
Events      
T = Trace of Precipitation, MM = Missing Value Source: NWS Daily Summary

Daily Weather History Graph

Daily Weather History Graph

Search for Another Location

Airport or City:

Trip Planner

Search our weather history database for the weather conditions in past years. The results will help you decide how hot, cold, wet, or windy it might be!

Date:

Astronomy

Sep. 27, 2013 Rise Set
Actual Time 7:27 AM EDT 7:23 PM EDT
Civil Twilight 7:01 AM EDT 7:50 PM EDT
Nautical Twilight 6:29 AM EDT 8:21 PM EDT
Astronomical Twilight 5:58 AM EDT 8:53 PM EDT
Moon 12:24 AM EDT (9/27) 2:59 PM EDT (9/27)
Length of Visible Light 12h 49m
Length of Day
11h 56m
Last Quarter, 45% of the Moon is Illuminated
Sep 27
Last Quarter
Oct 4
New
Oct 11
First Quarter
Oct 18
Full
Oct 26
Last Quarter

Hourly Weather History & Observations

Time (EDT) Temp. Dew Point Humidity Pressure Visibility Wind Dir Wind Speed Gust Speed Precip Events Conditions
12:54 AM 55.0 °F 46.9 °F 74% 30.09 in 10.0 mi ENE 6.9 mph - N/A   Clear
1:54 AM 55.0 °F 46.9 °F 74% 30.10 in 10.0 mi ENE 6.9 mph - 0.01 in   Clear
2:54 AM 50.0 °F 46.9 °F 89% 30.12 in 10.0 mi Calm Calm - N/A   Clear
3:54 AM 50.0 °F 46.0 °F 86% 30.11 in 10.0 mi Calm Calm - N/A   Clear
4:54 AM 48.9 °F 46.0 °F 90% 30.12 in 10.0 mi NE 5.8 mph - 0.01 in   Clear
5:54 AM 50.0 °F 45.0 °F 83% 30.13 in 10.0 mi ENE 5.8 mph - N/A   Clear
6:54 AM 50.0 °F 45.0 °F 83% 30.14 in 10.0 mi ENE 4.6 mph - N/A   Clear
7:54 AM 50.0 °F 46.0 °F 86% 30.18 in 10.0 mi ENE 3.5 mph - 0.01 in   Clear
8:54 AM 55.0 °F 48.9 °F 80% 30.19 in 10.0 mi ENE 4.6 mph - N/A   Clear
9:54 AM 62.1 °F 51.1 °F 67% 30.19 in 10.0 mi East 5.8 mph - N/A   Clear
10:54 AM 68.0 °F 51.1 °F 55% 30.19 in 10.0 mi East 3.5 mph - N/A   Clear
11:54 AM 73.0 °F 50.0 °F 44% 30.19 in 10.0 mi Variable 3.5 mph - N/A   Clear
12:54 PM 75.0 °F 45.0 °F 34% 30.17 in 10.0 mi NNW 3.5 mph - N/A   Clear
1:54 PM 78.1 °F 46.0 °F 32% 30.14 in 10.0 mi Calm Calm - N/A   Clear
2:54 PM 79.0 °F 44.1 °F 29% 30.13 in 10.0 mi NW 4.6 mph - N/A   Clear
3:54 PM 78.1 °F 43.0 °F 29% 30.12 in 10.0 mi Variable 3.5 mph - N/A   Clear
4:54 PM 81.0 °F 42.1 °F 25% 30.11 in 10.0 mi Calm Calm - N/A   Clear
5:54 PM 78.1 °F 44.1 °F 30% 30.12 in 10.0 mi ENE 5.8 mph - N/A   Clear
6:54 PM 73.0 °F 41.0 °F 31% 30.12 in 10.0 mi ENE 4.6 mph - N/A   Clear
7:54 PM 66.0 °F 43.0 °F 43% 30.13 in 10.0 mi East 4.6 mph - N/A   Clear
8:54 PM 57.0 °F 48.0 °F 72% 30.15 in 10.0 mi SSE 3.5 mph - N/A   Clear
9:54 PM 61.0 °F 46.9 °F 60% 30.15 in 10.0 mi Calm Calm - N/A   Clear
10:54 PM 57.9 °F 48.0 °F 70% 30.15 in 10.0 mi East 3.5 mph - N/A   Clear
11:54 PM 57.0 °F 48.0 °F 72% 30.14 in 10.0 mi ESE 5.8 mph - 0.01 in   Clear